| time (UTC) | temp F | wind direction | speed knots | gust knots | rain 1hr in | rain 24hr in | rain mn in | humidity % | barometer mb |
| 20260903151633 | 59 | 196 | 0.0 | 0.0 | 0.00 | 0.00 | 0.00 | 78 | 1000.4 |
| 20260903150046 | 59 | 194 | 0.0 | 0.0 | 0.00 | 0.00 | 0.00 | 78 | 1000.5 |
| 20260903144534 | 60 | 194 | 0.0 | 0.0 | 0.00 | 0.00 | 0.00 | 77 | 1000.4 |
| 20260903143036 | 59 | 217 | 0.0 | 0.0 | 0.00 | 0.00 | 0.00 | 77 | 1000.4 |
| 20260903141534 | 58 | 218 | 0.0 | 0.0 | 0.00 | 0.00 | 0.00 | 77 | 1000.4 |
| 20260903140029 | 58 | 217 | 0.0 | 0.0 | 0.00 | 0.00 | 0.00 | 79 | 1000.4 |
| 20260903134528 | 58 | 218 | 0.0 | 0.0 | 0.00 | 0.00 | 0.00 | 78 | 1000.4 |
| 20260903133029 | 57 | 223 | 0.0 | 0.0 | 0.00 | 0.00 | 0.00 | 80 | 1000.5 |
| 20260903131527 | 58 | 217 | 0.0 | 0.0 | 0.00 | 0.00 | 0.00 | 78 | 1000.6 |
| 20260903130026 | 58 | 186 | 0.0 | 0.0 | 0.00 | 0.00 | 0.00 | 79 | 1000.5 |
| 20260903124526 | 58 | 134 | 0.0 | 0.0 | 0.00 | 0.00 | 0.00 | 77 | 1000.4 |
| 20260903123028 | 60 | 128 | 0.0 | 0.0 | 0.00 | 0.00 | 0.00 | 76 | 1000.4 |
| 20260903121521 | 59 | 128 | 0.0 | 0.0 | 0.00 | 0.00 | 0.00 | 79 | 1000.3 |
| 20260903120020 | 58 | 128 | 0.0 | 0.0 | 0.00 | 0.00 | 0.00 | 80 | 1000.3 |
| 20260903114520 | 57 | 126 | 0.0 | 0.0 | 0.00 | 0.00 | 0.00 | 82 | 1000.3 |
| 20260903113018 | 57 | 126 | 0.0 | 0.0 | 0.00 | 0.00 | 0.00 | 81 | 1000.5 |
| 20260903111516 | 57 | 117 | 0.0 | 0.0 | 0.00 | 0.00 | 0.00 | 80 | 1000.4 |
| 20260903110014 | 57 | 116 | 0.0 | 0.0 | 0.00 | 0.00 | 0.00 | 80 | 1000.3 |
| 20260903104513 | 57 | 116 | 0.0 | 0.0 | 0.00 | 0.00 | 0.00 | 79 | 1000.4 |
| 20260903103012 | 57 | 116 | 1.7 | 0.0 | 0.00 | 0.00 | 0.00 | 78 | 1000.3 |
| 20260903101510 | 58 | 121 | 0.9 | 0.0 | 0.00 | 0.00 | 0.00 | 78 | 1000.2 |
| 20260903100018 | 59 | 120 | 0.0 | 0.0 | 0.00 | 0.00 | 0.00 | 80 | 1000.1 |
| 20260903094505 | 58 | 120 | 0.0 | 0.0 | 0.00 | 0.00 | 0.00 | 81 | 1000.0 |
| 20260903093002 | 58 | 119 | 0.0 | 0.0 | 0.00 | 0.00 | 0.00 | 84 | 1000.1 |
| 20260903091558 | 56 | 119 | 0.0 | 0.0 | 0.00 | 0.00 | 0.00 | 87 | 1000.0 |
| 20260903090056 | 55 | 119 | 0.0 | 0.0 | 0.00 | 0.00 | 0.00 | 89 | 1000.2 |
| 20260903084552 | 53 | 117 | 0.9 | 0.0 | 0.00 | 0.00 | 0.00 | 92 | 1000.0 |
| 20260903083055 | 53 | 67 | 0.0 | 0.0 | 0.00 | 0.00 | 0.00 | 93 | 1000.2 |
| 20260903081549 | 52 | 69 | 0.9 | 0.0 | 0.00 | 0.00 | 0.00 | 94 | 1000.1 |
| 20260903080047 | 52 | 77 | 1.7 | 0.0 | 0.00 | 0.00 | 0.00 | 93 | 1000.3 |
| 20260903074550 | 52 | 64 | 0.9 | 0.0 | 0.00 | 0.00 | 0.00 | 93 | 1000.3 |
| 20260903073049 | 52 | 155 | 0.0 | 0.0 | 0.00 | 0.00 | 0.00 | 94 | 1000.2 |
| 20260903071605 | 52 | 155 | 0.0 | 0.0 | 0.00 | 0.00 | 0.00 | 94 | 1000.2 |
| 20260903070059 | 52 | 155 | 0.0 | 0.0 | 0.00 | 0.00 | 0.00 | 94 | 1000.0 |
| 20260903064544 | 52 | 155 | 0.0 | 0.0 | 0.00 | 0.00 | 0.00 | 94 | 1000.0 |
| 20260903063044 | 52 | 173 | 0.0 | 0.0 | 0.00 | 0.00 | 0.00 | 96 | 999.9 |
| 20260903061543 | 51 | 174 | 0.0 | 0.0 | 0.00 | 0.00 | 0.00 | 96 | 1000.0 |
| 20260903060039 | 50 | 180 | 0.0 | 0.0 | 0.00 | 0.00 | 0.00 | 96 | 999.9 |
| 20260903054543 | 49 | 180 | 0.0 | 0.0 | 0.00 | 0.00 | 0.00 | 96 | 999.9 |
| 20260903053034 | 48 | 182 | 0.0 | 0.0 | 0.00 | 0.00 | 0.00 | 96 | 999.9 |
| 20260903051530 | 48 | 184 | 0.0 | 0.0 | 0.00 | 0.00 | 0.00 | 96 | 999.9 |
| 20260903050034 | 47 | 184 | 0.0 | 0.0 | 0.00 | 0.00 | 0.00 | 96 | 999.8 |
| 20260903044526 | 47 | 184 | 0.0 | 0.0 | 0.00 | 0.00 | 0.00 | 96 | 999.8 |
| 20260903043027 | 46 | 184 | 0.0 | 0.0 | 0.00 | 0.00 | 0.00 | 95 | 999.7 |
| 20260903041524 | 46 | 184 | 0.0 | 0.0 | 0.00 | 0.00 | 0.00 | 95 | 999.8 |
| 20260903040024 | 46 | 184 | 0.0 | 0.0 | 0.00 | 0.00 | 0.00 | 95 | 999.8 |
| 20260903034527 | 46 | 184 | 0.0 | 0.0 | 0.00 | 0.00 | 0.00 | 95 | 999.8 |
| 20260903033022 | 46 | 184 | 0.0 | 0.0 | 0.00 | 0.00 | 0.00 | 95 | 999.6 |
| 20260903031520 | 46 | 184 | 0.0 | 0.0 | 0.00 | 0.00 | 0.00 | 95 | 999.6 |
| 20260903030018 | 45 | 184 | 0.0 | 0.0 | 0.00 | 0.00 | 0.00 | 95 | 999.7 |
| 20260903024518 | 45 | 184 | 0.0 | 0.0 | 0.00 | 0.00 | 0.00 | 95 | 999.7 |
| 20260903023031 | 46 | 184 | 0.0 | 0.0 | 0.00 | 0.00 | 0.00 | 95 | 999.8 |
| 20260903021518 | 45 | 184 | 0.0 | 0.0 | 0.00 | 0.00 | 0.00 | 95 | 999.8 |
| 20260903020015 | 45 | 184 | 0.0 | 0.0 | 0.00 | 0.00 | 0.00 | 95 | 999.8 |
| 20260903014520 | 46 | 184 | 0.0 | 0.0 | 0.00 | 0.00 | 0.00 | 95 | 999.8 |
| 20260903013014 | 45 | 184 | 0.0 | 0.0 | 0.00 | 0.00 | 0.00 | 95 | 999.8 |
| 20260903011520 | 45 | 225 | 0.0 | 0.0 | 0.00 | 0.00 | 0.00 | 95 | 999.9 |
| 20260903010012 | 45 | 227 | 0.0 | 0.0 | 0.00 | 0.00 | 0.00 | 94 | 1000.0 |
| 20260903004512 | 45 | 229 | 0.0 | 0.0 | 0.00 | 0.00 | 0.00 | 94 | 1000.0 |
| 20260903003009 | 45 | 229 | 0.0 | 0.0 | 0.00 | 0.00 | 0.00 | 94 | 1000.1 |
| 20260903001517 | 44 | 229 | 0.0 | 0.0 | 0.00 | 0.00 | 0.00 | 94 | 1000.1 |
| 20260903000012 | 44 | 229 | 0.0 | 0.0 | 0.00 | 0.00 | 0.00 | 94 | 1000.0 |
| 20260902234505 | 45 | 229 | 0.0 | 0.0 | 0.00 | 0.00 | 0.00 | 94 | 1000.0 |
| 20260902233007 | 45 | 229 | 0.0 | 0.0 | 0.00 | 0.00 | 0.00 | 94 | 1000.1 |
| 20260902231505 | 45 | 229 | 0.0 | 0.0 | 0.00 | 0.00 | 0.00 | 93 | 1000.1 |
| 20260902230118 | 45 | 229 | 0.0 | 0.0 | 0.00 | 0.00 | 0.00 | 93 | 1000.3 |
| 20260902224613 | 45 | 229 | 0.0 | 0.0 | 0.00 | 0.00 | 0.00 | 93 | 1000.3 |
| 20260902223111 | 45 | 229 | 0.0 | 0.0 | 0.00 | 0.00 | 0.00 | 93 | 1000.2 |
| 20260902221603 | 46 | 229 | 0.0 | 0.0 | 0.00 | 0.00 | 0.00 | 93 | 1000.2 |
| 20260902220052 | 46 | 229 | 0.0 | 0.0 | 0.00 | 0.00 | 0.00 | 93 | 1000.1 |
| 20260902214616 | 46 | 229 | 0.0 | 0.0 | 0.00 | 0.00 | 0.00 | 93 | 1000.3 |
| 20260902213052 | 46 | 229 | 0.0 | 0.0 | 0.00 | 0.00 | 0.00 | 92 | 1000.4 |
| 20260902211552 | 46 | 229 | 0.0 | 0.0 | 0.00 | 0.00 | 0.00 | 92 | 1000.4 |
| 20260902210052 | 46 | 229 | 0.0 | 0.0 | 0.00 | 0.00 | 0.00 | 92 | 1000.4 |
| 20260902204548 | 47 | 229 | 0.0 | 0.0 | 0.00 | 0.00 | 0.00 | 91 | 1000.5 |
| 20260902203048 | 47 | 229 | 0.0 | 0.0 | 0.00 | 0.00 | 0.00 | 91 | 1000.6 |
| 20260902201558 | 47 | 229 | 0.0 | 0.0 | 0.00 | 0.00 | 0.00 | 91 | 1000.7 |
| 20260902200049 | 48 | 229 | 0.0 | 0.0 | 0.00 | 0.00 | 0.00 | 90 | 1000.7 |
| 20260902194551 | 49 | 230 | 0.0 | 0.0 | 0.00 | 0.00 | 0.00 | 89 | 1000.6 |
| 20260902193047 | 50 | 230 | 0.0 | 0.0 | 0.00 | 0.00 | 0.00 | 88 | 1000.5 |
| 20260902191546 | 51 | 230 | 0.0 | 0.0 | 0.00 | 0.00 | 0.00 | 88 | 1000.6 |
| 20260902190045 | 51 | 230 | 0.0 | 0.0 | 0.00 | 0.00 | 0.00 | 86 | 1000.5 |
| 20260902184545 | 52 | 230 | 0.0 | 0.0 | 0.00 | 0.00 | 0.00 | 85 | 1000.5 |
| 20260902183045 | 54 | 230 | 0.0 | 0.0 | 0.00 | 0.00 | 0.00 | 83 | 1000.6 |
| 20260902181544 | 55 | 230 | 0.0 | 0.0 | 0.00 | 0.00 | 0.00 | 81 | 1000.6 |
| 20260902180043 | 56 | 230 | 0.0 | 0.0 | 0.00 | 0.00 | 0.00 | 80 | 1000.6 |
| 20260902174549 | 57 | 230 | 0.0 | 0.0 | 0.00 | 0.00 | 0.00 | 79 | 1000.5 |
| 20260902173042 | 58 | 232 | 0.0 | 0.0 | 0.00 | 0.00 | 0.00 | 79 | 1000.7 |
| 20260902171544 | 59 | 233 | 0.0 | 0.0 | 0.00 | 0.00 | 0.00 | 78 | 1000.6 |
| 20260902170042 | 59 | 233 | 0.0 | 0.0 | 0.00 | 0.00 | 0.00 | 78 | 1000.7 |
| 20260902164547 | 59 | 233 | 0.9 | 0.0 | 0.00 | 0.00 | 0.00 | 75 | 1000.5 |
| 20260902163042 | 61 | 232 | 0.9 | 0.0 | 0.00 | 0.00 | 0.00 | 71 | 1000.6 |
| 20260902161540 | 62 | 227 | 0.0 | 0.0 | 0.00 | 0.00 | 0.00 | 66 | 1000.5 |
| 20260902160040 | 61 | 228 | 0.0 | 0.0 | 0.00 | 0.00 | 0.00 | 69 | 1000.6 |
| 20260902154540 | 61 | 228 | 0.0 | 0.0 | 0.00 | 0.00 | 0.00 | 69 | 1000.5 |
| 20260902153040 | 61 | 228 | 0.0 | 0.0 | 0.00 | 0.00 | 0.00 | 70 | 1000.5 |